This is the latest recevied weather packets stored in our database for station/object KQ4UWH. If no packets are shown the sender has not sent any weather packets the latest 10 day(s).
| Time | Temp. | Humidity | Pressure | Rain* | Wind** | Luminosity | Snow |
|---|---|---|---|---|---|---|---|
| 1777818738 | 13.33° C | 62% | 1239.7 hPa | 0 mm | - | 69 W/m² | - |
| 1777818434 | 13.33° C | 62% | 1239.7 hPa | 0 mm | - | 40 W/m² | - |
| 1777818131 | 12.78° C | 69% | 1239.7 hPa | 0 mm | - | 37 W/m² | - |
| 1777817828 | 12.78° C | 66% | 1239.7 hPa | 0 mm | - | 102 W/m² | - |
| 1777817525 | 12.22° C | 68% | 1239.7 hPa | 0 mm | - | 142 W/m² | - |
| 1777817221 | 12.22° C | 69% | 1239.7 hPa | 0 mm | - | 46 W/m² | - |
| 1777816919 | 12.22° C | 69% | 1239.7 hPa | 0 mm | - | 52 W/m² | - |
| 1777816615 | 11.67° C | 71% | 1239.7 hPa | 0 mm | - | 35 W/m² | - |
| 1777816312 | 11.67° C | 72% | 1239.7 hPa | 0 mm | - | 41 W/m² | - |
| 1777816010 | 11.11° C | 72% | 1239.7 hPa | 0 mm | - | 34 W/m² | - |
| 1777815707 | 11.11° C | 73% | 1239.7 hPa | 0 mm | - | 46 W/m² | - |
| 1777815404 | 10.56° C | 74% | 1239.7 hPa | 0 mm | - | 33 W/m² | - |
| 1777815101 | 10.56° C | 75% | 1239.7 hPa | 0 mm | - | 32 W/m² | - |
| 1777814797 | 10.56° C | 75% | 1239.7 hPa | 0 mm | - | 32 W/m² | - |
| 1777814494 | 10° C | 78% | 1239.7 hPa | 0 mm | - | 31 W/m² | - |
| 1777814192 | 10° C | 77% | 1239.7 hPa | 0 mm | - | 29 W/m² | - |
| 1777813889 | 10° C | 78% | 1239.7 hPa | 0 mm | - | 29 W/m² | - |
| 1777813586 | 9.44° C | 78% | 1239.7 hPa | 0 mm | - | 28 W/m² | - |
| 1777813284 | 9.44° C | 79% | 1239.7 hPa | 0 mm | - | 28 W/m² | - |
| 1777812980 | 9.44° C | 79% | 1239.7 hPa | 0 mm | - | 27 W/m² | - |
| 1777812678 | 8.89° C | 80% | 1239.7 hPa | 0 mm | - | 26 W/m² | - |
| 1777812374 | 8.89° C | 81% | 1239.7 hPa | 0 mm | - | 26 W/m² | - |
| 1777812073 | 8.89° C | 81% | 1239.7 hPa | 0 mm | - | 29 W/m² | - |
| 1777811771 | 8.33° C | 81% | 1239.7 hPa | 0 mm | - | 24 W/m² | - |
| 1777811468 | 8.33° C | 82% | 1239.7 hPa | 0 mm | - | 24 W/m² | - |
* Rain latest hour (hover to see other rain measurements)
** Current wind speed in m/s (hover to see current wind gust speed)